Location: Torino
(45.0678°N, 7.6825°E)
Time: 14:18:09
(UTC+02:00)

BlueWalker 3 - Visible Passes

Search period start: 08 May 2026 00:00
Search period end: 18 May 2026 00:00
Orbit: 448 x 458 km, 53.2° (Epoch: 7 May)

Date Brightness Start Highest point End Pass type
(mag) Time Alt. Az. Time Alt. Az. Time Alt. Az.
8 May 1.6 04:17:39 43° SW 04:18:42 79° SE 04:22:15 10° ENE visible
9 May 1.9 03:42:05 59° SE 03:42:05 59° SE 03:45:29 10° ENE visible
9 May 3.1 05:16:21 10° W 05:19:33 31° NNW 05:22:47 10° NE visible
10 May 3.2 03:06:29 31° E 03:06:29 31° E 03:08:40 10° ENE visible
10 May 2.9 04:40:06 14° W 04:42:44 36° NNW 04:46:03 10° NE visible
11 May 4.2 02:30:49 17° E 02:30:49 17° E 02:31:47 10° ENE visible
11 May 2.6 04:04:26 27° W 04:05:54 43° NNW 04:09:19 10° NE visible
12 May 2.2 03:28:43 50° NW 03:29:05 53° NNW 03:32:35 10° NE visible
12 May 3.9 05:04:10 10° WNW 05:07:03 22° N 05:09:56 10° NE visible
13 May 2.5 02:52:57 51° NNE 02:52:57 51° NNE 02:55:49 10° NE visible
13 May 3.8 04:27:12 10° WNW 04:30:10 24° N 04:33:06 10° NE visible
14 May 3.4 02:17:08 30° NE 02:17:08 30° NE 02:19:02 10° NE visible
14 May 3.7 03:50:45 13° WNW 03:53:16 26° NNW 03:56:17 10° NE visible
15 May 4.1 01:41:16 17° ENE 01:41:16 17° ENE 01:42:14 10° ENE visible
15 May 3.5 03:14:52 21° WNW 03:16:21 29° NNW 03:19:30 10° NE visible
15 May 4.1 04:51:43 10° NW 04:54:33 22° N 04:57:22 10° ENE visible
16 May 4.6 01:05:19 10° ENE 01:05:19 10° ENE 01:05:24 10° ENE visible
16 May 3.2 02:38:55 31° NW 02:39:28 32° NNW 02:42:43 10° NE visible
16 May 4.2 04:14:49 10° NW 04:17:36 21° N 04:20:25 10° NE visible
17 May 3.1 02:02:52 37° N 02:02:52 37° N 02:05:55 10° NE visible
17 May 4.2 03:37:52 10° NW 03:40:40 21° N 03:43:28 10° NE visible
17 May 3.7 05:15:36 10° NW 05:18:49 31° NNE 05:22:02 10° E visible
